TimePDT,TemperatureF,Dew PointF,Humidity,Sea Level PressureIn,VisibilityMPH,Wind Direction,Wind SpeedMPH,Gust SpeedMPH,PrecipitationIn,Events,Conditions,WindDirDegrees,DateUTC
12:15 AM,51.8,51.8,100,29.98,10.0,NNW,3.5,-,N/A,,Clear,330,2013-08-12 07:15:00
12:35 AM,51.8,51.8,100,29.98,10.0,Calm,Calm,-,N/A,,Clear,0,2013-08-12 07:35:00
12:55 AM,53.6,53.6,100,29.98,10.0,Calm,Calm,-,N/A,,Clear,0,2013-08-12 07:55:00
1:15 AM,53.6,53.6,100,29.98,10.0,Calm,Calm,-,N/A,,Clear,0,2013-08-12 08:15:00
1:35 AM,51.8,51.8,100,29.97,10.0,Calm,Calm,-,N/A,,Scattered Clouds,0,2013-08-12 08:35:00
1:55 AM,51.8,51.8,100,29.97,10.0,Calm,Calm,-,N/A,,Partly Cloudy,0,2013-08-12 08:55:00
2:15 AM,50.0,50.0,100,29.97,10.0,Calm,Calm,-,N/A,,Clear,0,2013-08-12 09:15:00
2:35 AM,51.8,51.8,100,29.97,10.0,Calm,Calm,-,N/A,,Scattered Clouds,0,2013-08-12 09:35:00
2:55 AM,51.8,51.8,100,29.96,10.0,Calm,Calm,-,N/A,,Overcast,0,2013-08-12 09:55:00
3:15 AM,51.8,51.8,100,29.96,10.0,Calm,Calm,-,N/A,,Overcast,0,2013-08-12 10:15:00
3:35 AM,51.8,51.8,100,29.96,10.0,Calm,Calm,-,N/A,,Overcast,0,2013-08-12 10:35:00
3:55 AM,53.6,53.6,100,29.96,10.0,Calm,Calm,-,N/A,,Overcast,0,2013-08-12 10:55:00
4:15 AM,53.6,53.6,100,29.96,10.0,Calm,Calm,-,N/A,,Overcast,0,2013-08-12 11:15:00
4:35 AM,55.4,55.4,100,29.96,10.0,Calm,Calm,-,N/A,,Overcast,0,2013-08-12 11:35:00
4:55 AM,55.4,55.4,100,29.96,10.0,Calm,Calm,-,N/A,,Overcast,0,2013-08-12 11:55:00
5:15 AM,55.4,55.4,100,29.97,10.0,Calm,Calm,-,N/A,,Overcast,0,2013-08-12 12:15:00
5:35 AM,55.4,55.4,100,29.97,10.0,Calm,Calm,-,N/A,,Overcast,0,2013-08-12 12:35:00
5:55 AM,55.4,55.4,100,29.97,10.0,SSW,4.6,-,N/A,,Overcast,210,2013-08-12 12:55:00
6:15 AM,55.4,55.4,100,29.98,10.0,Calm,Calm,-,N/A,,Overcast,0,2013-08-12 13:15:00
6:35 AM,53.6,53.6,100,29.98,10.0,Calm,Calm,-,N/A,,Overcast,0,2013-08-12 13:35:00
6:55 AM,53.6,53.6,100,29.99,10.0,Calm,Calm,-,N/A,,Overcast,0,2013-08-12 13:55:00
7:15 AM,53.6,53.6,100,29.99,10.0,NNW,3.5,-,N/A,,Overcast,330,2013-08-12 14:15:00
7:35 AM,53.6,53.6,100,29.99,10.0,Calm,Calm,-,N/A,,Overcast,0,2013-08-12 14:35:00
7:55 AM,55.4,55.4,100,30.00,10.0,Calm,Calm,-,N/A,,Overcast,0,2013-08-12 14:55:00
8:15 AM,55.4,55.4,100,30.00,10.0,NE,3.5,-,N/A,,Overcast,50,2013-08-12 15:15:00
8:35 AM,55.4,55.4,100,30.00,10.0,Calm,Calm,-,N/A,,Overcast,0,2013-08-12 15:35:00
8:55 AM,55.4,55.4,100,30.01,10.0,Calm,Calm,-,N/A,,Unknown,0,2013-08-12 15:55:00
9:15 AM,55.4,55.4,100,30.01,10.0,ENE,3.5,-,N/A,,Unknown,60,2013-08-12 16:15:00
9:35 AM,57.2,55.4,94,30.01,10.0,Calm,Calm,-,N/A,,Unknown,0,2013-08-12 16:35:00
9:55 AM,57.2,55.4,94,30.01,10.0,Calm,Calm,-,N/A,,Unknown,0,2013-08-12 16:55:00
10:15 AM,59.0,55.4,88,30.01,10.0,Calm,Calm,-,N/A,,Unknown,0,2013-08-12 17:15:00
10:35 AM,60.8,55.4,82,30.01,10.0,Calm,Calm,-,N/A,,Unknown,0,2013-08-12 17:35:00
10:55 AM,62.6,55.4,77,30.01,10.0,Calm,Calm,-,N/A,,Unknown,0,2013-08-12 17:55:00
11:15 AM,64.4,55.4,73,30.01,10.0,ESE,3.5,-,N/A,,Unknown,120,2013-08-12 18:15:00
11:35 AM,68.0,55.4,64,30.00,10.0,East,3.5,-,N/A,,Unknown,100,2013-08-12 18:35:00
11:55 AM,68.0,55.4,64,30.00,-9999.0,SE,3.5,-,N/A,,Unknown,140,2013-08-12 18:55:00
12:15 PM,71.6,55.4,57,29.99,-9999.0,ESE,3.5,-,N/A,,Unknown,120,2013-08-12 19:15:00
12:35 PM,71.6,55.4,57,29.99,-9999.0,South,4.6,-,N/A,,Unknown,170,2013-08-12 19:35:00
12:55 PM,73.4,57.2,57,29.98,-9999.0,ESE,8.1,-,N/A,,Unknown,120,2013-08-12 19:55:00
1:15 PM,73.4,57.2,57,29.98,-9999.0,SE,6.9,-,N/A,,Unknown,130,2013-08-12 20:15:00
1:35 PM,75.2,57.2,53,29.98,-9999.0,SE,5.8,-,N/A,,Unknown,130,2013-08-12 20:35:00
1:55 PM,75.2,59.0,57,29.97,-9999.0,ESE,6.9,-,N/A,,Clear,120,2013-08-12 20:55:00
2:15 PM,77.0,57.2,50,29.96,-9999.0,SE,6.9,-,N/A,,Clear,130,2013-08-12 21:15:00
2:35 PM,77.0,59.0,54,29.96,-9999.0,ESE,8.1,-,N/A,,Clear,110,2013-08-12 21:35:00
2:55 PM,80.6,57.2,45,29.95,-9999.0,SE,5.8,-,N/A,,Clear,130,2013-08-12 21:55:00
3:15 PM,82.4,57.2,42,29.95,-9999.0,SSE,8.1,-,N/A,Rain,Light Rain,160,2013-08-12 22:15:00
3:35 PM,80.6,57.2,45,29.95,-9999.0,SSE,6.9,-,N/A,,Clear,150,2013-08-12 22:35:00
3:55 PM,80.6,57.2,45,29.94,-9999.0,SE,5.8,-,N/A,,Clear,130,2013-08-12 22:55:00
4:15 PM,80.6,57.2,45,29.94,-9999.0,East,5.8,-,N/A,,Clear,100,2013-08-12 23:15:00
4:35 PM,80.6,59.0,48,29.94,-9999.0,ESE,5.8,-,N/A,,Clear,120,2013-08-12 23:35:00
4:55 PM,80.6,59.0,48,29.94,-9999.0,SE,5.8,-,N/A,,Clear,140,2013-08-12 23:55:00
5:15 PM,80.6,57.2,45,29.93,-9999.0,SE,4.6,-,N/A,,Clear,140,2013-08-13 00:15:00
5:35 PM,80.6,55.4,42,29.94,-9999.0,East,6.9,-,N/A,,Clear,100,2013-08-13 00:35:00
5:55 PM,80.6,51.8,37,29.93,-9999.0,SSW,4.6,-,N/A,,Clear,210,2013-08-13 00:55:00
6:15 PM,80.6,50.0,34,29.94,-9999.0,NW,6.9,-,N/A,,Clear,320,2013-08-13 01:15:00
6:35 PM,77.0,50.0,39,29.94,-9999.0,NNW,10.4,-,N/A,,Clear,340,2013-08-13 01:35:00
6:55 PM,75.2,48.2,38,29.94,-9999.0,North,10.4,-,N/A,,Clear,350,2013-08-13 01:55:00
7:15 PM,71.6,50.0,46,29.94,-9999.0,NNW,10.4,-,N/A,,Clear,340,2013-08-13 02:15:00
7:35 PM,64.4,53.6,68,29.95,-9999.0,North,4.6,16.1,N/A,,Clear,10,2013-08-13 02:35:00
7:55 PM,60.8,53.6,77,29.96,-9999.0,NNE,8.1,-,N/A,,Clear,20,2013-08-13 02:55:00
8:15 PM,59.0,53.6,82,29.96,10.0,NNE,8.1,-,N/A,,Clear,20,2013-08-13 03:15:00
8:35 PM,57.2,53.6,88,29.97,10.0,North,11.5,-,N/A,,Clear,10,2013-08-13 03:35:00
8:55 PM,55.4,53.6,94,29.97,10.0,North,10.4,-,N/A,,Clear,360,2013-08-13 03:55:00
9:15 PM,55.4,53.6,94,29.98,10.0,North,6.9,-,N/A,,Clear,360,2013-08-13 04:15:00
9:55 PM,53.6,53.6,100,29.99,10.0,North,6.9,-,N/A,,Clear,350,2013-08-13 04:55:00
10:15 PM,53.6,53.6,100,29.98,10.0,North,5.8,-,N/A,,Clear,360,2013-08-13 05:15:00
10:35 PM,51.8,51.8,100,29.98,10.0,North,5.8,-,N/A,,Clear,10,2013-08-13 05:35:00
10:55 PM,51.8,51.8,100,29.98,10.0,North,5.8,-,N/A,,Clear,350,2013-08-13 05:55:00
11:15 PM,51.8,51.8,100,29.98,10.0,NNW,5.8,-,N/A,,Clear,340,2013-08-13 06:15:00
11:35 PM,53.6,53.6,100,29.98,10.0,Calm,Calm,-,N/A,,Clear,0,2013-08-13 06:35:00
11:55 PM,53.6,53.6,100,29.98,10.0,Calm,Calm,-,N/A,,Clear,0,2013-08-13 06:55:00